Time,TemperatureF,DewpointF,PressureIn,WindDirection,WindDirectionDegrees,WindSpeedMPH,WindSpeedGustMPH,Humidity,HourlyPrecipIn,Conditions,Clouds,dailyrainin,SoftwareType,DateUTC
2013-08-18 00:01:00,62.3,54.9,29.74,North,0,0.0,0.0,77,0.00,,,0.00,WUHU216HW,2013-08-18 07:01:00,
2013-08-18 00:06:00,62.1,54.8,29.74,North,0,0.0,0.0,77,0.00,,,0.00,WUHU216HW,2013-08-18 07:06:00,
2013-08-18 00:11:00,61.9,55.0,29.74,North,0,0.0,0.0,78,0.00,,,0.00,WUHU216HW,2013-08-18 07:11:00,
2013-08-18 00:16:00,61.9,55.0,29.74,North,0,0.0,0.0,78,0.00,,,0.00,WUHU216HW,2013-08-18 07:16:00,
2013-08-18 00:21:00,61.7,54.8,29.74,North,0,0.0,0.0,78,0.00,,,0.00,WUHU216HW,2013-08-18 07:21:00,
2013-08-18 00:26:00,61.6,55.0,29.74,North,0,0.0,0.0,79,0.00,,,0.00,WUHU216HW,2013-08-18 07:26:00,
2013-08-18 00:31:00,61.4,54.8,29.74,North,0,0.0,0.0,79,0.00,,,0.00,WUHU216HW,2013-08-18 07:31:00,
2013-08-18 00:36:00,61.4,54.8,29.74,North,0,0.0,0.0,79,0.00,,,0.00,WUHU216HW,2013-08-18 07:36:00,
2013-08-18 00:41:00,61.2,54.7,29.74,North,0,0.0,0.0,79,0.00,,,0.00,WUHU216HW,2013-08-18 07:41:00,
2013-08-18 00:46:00,61.0,54.6,29.74,North,0,0.0,0.0,79,0.00,,,0.00,WUHU216HW,2013-08-18 07:46:00,
2013-08-18 00:51:00,60.8,54.4,29.74,North,0,0.0,0.0,79,0.00,,,0.00,WUHU216HW,2013-08-18 07:51:00,
2013-08-18 00:56:00,60.7,54.2,29.74,North,0,0.0,0.0,79,0.00,,,0.00,WUHU216HW,2013-08-18 07:56:00,
2013-08-18 01:01:00,60.7,54.2,29.74,North,0,0.0,0.0,79,0.00,,,0.00,WUHU216HW,2013-08-18 08:01:00,
2013-08-18 01:06:00,60.5,54.4,29.74,North,0,0.0,0.0,80,0.00,,,0.00,WUHU216HW,2013-08-18 08:06:00,
2013-08-18 01:11:00,60.1,54.0,29.74,North,0,0.0,0.0,80,0.00,,,0.00,WUHU216HW,2013-08-18 08:11:00,
2013-08-18 01:16:00,59.9,54.2,29.74,North,0,0.0,0.0,81,0.00,,,0.00,WUHU216HW,2013-08-18 08:16:00,
2013-08-18 01:21:00,59.8,54.0,29.74,North,0,0.0,0.0,81,0.00,,,0.00,WUHU216HW,2013-08-18 08:21:00,
2013-08-18 01:26:00,59.8,54.0,29.74,North,0,0.0,0.0,81,0.00,,,0.00,WUHU216HW,2013-08-18 08:26:00,
2013-08-18 01:31:00,59.8,54.0,29.75,North,0,0.0,0.0,81,0.00,,,0.00,WUHU216HW,2013-08-18 08:31:00,
2013-08-18 01:36:00,59.6,53.8,29.75,North,0,0.0,0.0,81,0.00,,,0.00,WUHU216HW,2013-08-18 08:36:00,
2013-08-18 01:41:00,59.6,53.8,29.74,North,0,0.0,0.0,81,0.00,,,0.00,WUHU216HW,2013-08-18 08:41:00,
2013-08-18 01:46:00,59.4,53.7,29.74,North,0,0.0,0.0,81,0.00,,,0.00,WUHU216HW,2013-08-18 08:46:00,
2013-08-18 01:51:00,59.6,54.1,29.74,North,0,0.0,0.0,82,0.00,,,0.00,WUHU216HW,2013-08-18 08:51:00,
2013-08-18 01:56:00,59.6,54.1,29.74,North,0,0.0,0.0,82,0.00,,,0.00,WUHU216HW,2013-08-18 08:56:00,
2013-08-18 02:01:00,59.6,54.1,29.75,North,0,0.0,0.0,82,0.00,,,0.00,WUHU216HW,2013-08-18 09:01:00,
2013-08-18 02:06:00,59.6,54.1,29.75,North,0,0.0,0.0,82,0.00,,,0.00,WUHU216HW,2013-08-18 09:06:00,
2013-08-18 02:11:00,59.8,54.6,29.75,North,0,0.0,0.0,83,0.00,,,0.00,WUHU216HW,2013-08-18 09:11:00,
2013-08-18 02:16:00,59.8,54.6,29.75,North,0,0.0,0.0,83,0.00,,,0.00,WUHU216HW,2013-08-18 09:16:00,
2013-08-18 02:21:00,59.9,54.8,29.74,North,0,0.0,0.0,83,0.00,,,0.00,WUHU216HW,2013-08-18 09:21:00,
2013-08-18 02:26:00,59.9,54.8,29.74,North,0,0.0,0.0,83,0.00,,,0.00,WUHU216HW,2013-08-18 09:26:00,
2013-08-18 02:31:00,59.9,54.5,29.74,North,0,0.0,0.0,82,0.00,,,0.00,WUHU216HW,2013-08-18 09:31:00,
2013-08-18 02:36:00,59.9,54.5,29.74,North,0,0.0,0.0,82,0.00,,,0.00,WUHU216HW,2013-08-18 09:36:00,
2013-08-18 02:41:00,59.9,54.5,29.74,North,0,0.0,0.0,82,0.00,,,0.00,WUHU216HW,2013-08-18 09:41:00,
2013-08-18 02:46:00,59.9,54.5,29.74,North,0,0.0,0.0,82,0.00,,,0.00,WUHU216HW,2013-08-18 09:46:00,
2013-08-18 02:51:00,59.8,54.3,29.74,North,0,0.0,0.0,82,0.00,,,0.00,WUHU216HW,2013-08-18 09:51:00,
2013-08-18 02:56:00,59.8,54.3,29.74,North,0,0.0,0.0,82,0.00,,,0.00,WUHU216HW,2013-08-18 09:56:00,
2013-08-18 03:01:00,59.8,54.3,29.74,North,0,0.0,0.0,82,0.00,,,0.00,WUHU216HW,2013-08-18 10:01:00,
2013-08-18 03:06:00,59.6,54.1,29.74,North,0,0.0,0.0,82,0.00,,,0.00,WUHU216HW,2013-08-18 10:06:00,
2013-08-18 03:11:00,59.6,54.1,29.74,North,0,0.0,0.0,82,0.00,,,0.00,WUHU216HW,2013-08-18 10:11:00,
2013-08-18 03:16:00,59.4,54.3,29.74,North,0,0.0,0.0,83,0.00,,,0.00,WUHU216HW,2013-08-18 10:16:00,
2013-08-18 03:21:00,59.2,54.1,29.74,North,0,0.0,0.0,83,0.00,,,0.00,WUHU216HW,2013-08-18 10:21:00,
2013-08-18 03:26:00,59.2,54.1,29.74,North,0,0.0,0.0,83,0.00,,,0.00,WUHU216HW,2013-08-18 10:26:00,
2013-08-18 03:31:00,59.2,54.1,29.74,North,0,0.0,0.0,83,0.00,,,0.00,WUHU216HW,2013-08-18 10:31:00,
2013-08-18 03:36:00,59.0,53.9,29.75,North,0,0.0,0.0,83,0.00,,,0.00,WUHU216HW,2013-08-18 10:36:00,
2013-08-18 03:41:00,59.2,54.4,29.75,North,0,0.0,0.0,84,0.00,,,0.00,WUHU216HW,2013-08-18 10:41:00,
2013-08-18 03:46:00,59.2,54.4,29.75,North,0,0.0,0.0,84,0.00,,,0.00,WUHU216HW,2013-08-18 10:46:00,
2013-08-18 03:51:00,59.2,54.4,29.75,North,0,0.0,0.0,84,0.00,,,0.00,WUHU216HW,2013-08-18 10:51:00,
2013-08-18 03:56:00,59.2,54.4,29.74,North,0,0.0,0.0,84,0.00,,,0.00,WUHU216HW,2013-08-18 10:56:00,
2013-08-18 04:01:00,59.0,54.2,29.74,North,0,0.0,0.0,84,0.00,,,0.00,WUHU216HW,2013-08-18 11:01:00,
2013-08-18 04:06:00,59.0,54.5,29.75,North,0,0.0,0.0,85,0.00,,,0.00,WUHU216HW,2013-08-18 11:06:00,
2013-08-18 04:11:00,59.0,54.2,29.74,North,0,0.0,0.0,84,0.00,,,0.00,WUHU216HW,2013-08-18 11:11:00,
2013-08-18 04:16:00,59.2,54.7,29.74,North,0,0.0,0.0,85,0.00,,,0.00,WUHU216HW,2013-08-18 11:16:00,
2013-08-18 04:21:00,59.2,54.4,29.74,North,0,0.0,0.0,84,0.00,,,0.00,WUHU216HW,2013-08-18 11:21:00,
2013-08-18 04:26:00,59.4,54.5,29.74,North,0,0.0,0.0,84,0.00,,,0.00,WUHU216HW,2013-08-18 11:26:00,
2013-08-18 04:31:00,59.4,54.5,29.74,North,0,0.0,0.0,84,0.00,,,0.00,WUHU216HW,2013-08-18 11:31:00,
2013-08-18 04:36:00,59.4,54.5,29.74,North,0,0.0,0.0,84,0.00,,,0.00,WUHU216HW,2013-08-18 11:36:00,
2013-08-18 04:41:00,59.4,54.5,29.74,North,0,0.0,0.0,84,0.00,,,0.00,WUHU216HW,2013-08-18 11:41:00,
2013-08-18 04:46:00,59.4,54.5,29.74,North,0,0.0,0.0,84,0.00,,,0.00,WUHU216HW,2013-08-18 11:46:00,
2013-08-18 04:51:00,59.6,54.5,29.74,North,0,0.0,0.0,83,0.00,,,0.00,WUHU216HW,2013-08-18 11:51:00,
2013-08-18 04:56:00,59.6,54.7,29.74,North,0,0.0,0.0,84,0.00,,,0.00,WUHU216HW,2013-08-18 11:56:00,
2013-08-18 05:01:00,59.6,54.5,29.74,North,0,0.0,0.0,83,0.00,,,0.00,WUHU216HW,2013-08-18 12:01:00,
2013-08-18 05:06:00,59.8,54.6,29.74,North,0,0.0,0.0,83,0.00,,,0.00,WUHU216HW,2013-08-18 12:06:00,
2013-08-18 05:11:00,59.8,54.6,29.75,North,0,0.0,0.0,83,0.00,,,0.00,WUHU216HW,2013-08-18 12:11:00,
2013-08-18 05:16:00,59.8,54.6,29.75,North,0,0.0,0.0,83,0.00,,,0.00,WUHU216HW,2013-08-18 12:16:00,
2013-08-18 05:21:00,59.8,54.6,29.75,North,0,0.0,0.0,83,0.00,,,0.00,WUHU216HW,2013-08-18 12:21:00,
2013-08-18 05:26:00,59.9,54.8,29.75,North,0,0.0,0.0,83,0.00,,,0.00,WUHU216HW,2013-08-18 12:26:00,
2013-08-18 05:31:00,59.9,54.8,29.75,North,0,0.0,0.0,83,0.00,,,0.00,WUHU216HW,2013-08-18 12:31:00,
2013-08-18 05:36:00,59.9,54.8,29.75,North,0,0.0,0.0,83,0.00,,,0.00,WUHU216HW,2013-08-18 12:36:00,
2013-08-18 05:41:00,59.9,54.8,29.75,North,0,0.0,0.0,83,0.00,,,0.00,WUHU216HW,2013-08-18 12:41:00,
2013-08-18 05:46:00,59.9,55.1,29.75,North,0,0.0,0.0,84,0.00,,,0.00,WUHU216HW,2013-08-18 12:46:00,
2013-08-18 05:51:00,59.8,54.9,29.75,North,0,0.0,0.0,84,0.00,,,0.00,WUHU216HW,2013-08-18 12:51:00,
2013-08-18 05:56:00,59.6,54.7,29.75,North,0,0.0,0.0,84,0.00,,,0.00,WUHU216HW,2013-08-18 12:56:00,
2013-08-18 06:01:00,59.6,54.7,29.75,North,0,0.0,0.0,84,0.00,,,0.00,WUHU216HW,2013-08-18 13:01:00,
2013-08-18 06:06:00,59.6,54.7,29.75,North,0,0.0,0.0,84,0.00,,,0.00,WUHU216HW,2013-08-18 13:06:00,
2013-08-18 06:11:00,59.8,54.9,29.75,North,0,0.0,0.0,84,0.00,,,0.00,WUHU216HW,2013-08-18 13:11:00,
2013-08-18 06:16:00,59.8,54.9,29.75,North,0,0.0,0.0,84,0.00,,,0.00,WUHU216HW,2013-08-18 13:16:00,
2013-08-18 06:21:00,59.8,54.9,29.75,North,0,0.0,0.0,84,0.00,,,0.00,WUHU216HW,2013-08-18 13:21:00,
2013-08-18 06:26:00,59.8,54.9,29.75,North,0,0.0,0.0,84,0.00,,,0.00,WUHU216HW,2013-08-18 13:26:00,
2013-08-18 06:31:00,59.9,54.8,29.76,North,0,0.0,0.0,83,0.00,,,0.00,WUHU216HW,2013-08-18 13:31:00,
2013-08-18 06:36:00,59.9,54.8,29.76,North,0,0.0,0.0,83,0.00,,,0.00,WUHU216HW,2013-08-18 13:36:00,
2013-08-18 06:41:00,60.1,55.0,29.75,North,0,0.0,0.0,83,0.00,,,0.00,WUHU216HW,2013-08-18 13:41:00,
2013-08-18 06:46:00,60.1,55.0,29.75,North,0,0.0,0.0,83,0.00,,,0.00,WUHU216HW,2013-08-18 13:46:00,
2013-08-18 06:51:00,60.1,55.0,29.75,North,0,0.0,0.0,83,0.00,,,0.00,WUHU216HW,2013-08-18 13:51:00,
2013-08-18 06:56:00,60.5,55.4,29.75,North,0,0.0,0.0,83,0.00,,,0.00,WUHU216HW,2013-08-18 13:56:00,
2013-08-18 07:01:00,60.7,55.8,29.76,North,0,0.0,0.0,84,0.00,,,0.00,WUHU216HW,2013-08-18 14:01:00,
2013-08-18 07:06:00,61.0,55.9,29.76,North,0,0.0,0.0,83,0.00,,,0.00,WUHU216HW,2013-08-18 14:06:00,
2013-08-18 07:11:00,61.4,56.2,29.76,North,0,0.0,0.0,83,0.00,,,0.00,WUHU216HW,2013-08-18 14:11:00,
2013-08-18 07:16:00,61.9,56.7,29.76,North,0,0.0,0.0,83,0.00,,,0.00,WUHU216HW,2013-08-18 14:16:00,
2013-08-18 07:21:00,62.3,57.1,29.76,North,0,0.0,0.0,83,0.00,,,0.00,WUHU216HW,2013-08-18 14:21:00,
2013-08-18 07:26:00,62.8,57.3,29.76,North,0,0.0,0.0,82,0.00,,,0.00,WUHU216HW,2013-08-18 14:26:00,
2013-08-18 07:31:00,63.2,57.3,29.76,North,0,0.0,0.0,81,0.00,,,0.00,WUHU216HW,2013-08-18 14:31:00,
2013-08-18 07:36:00,63.7,57.8,29.76,North,0,0.0,0.0,81,0.00,,,0.00,WUHU216HW,2013-08-18 14:36:00,
2013-08-18 07:41:00,64.1,57.8,29.76,North,0,0.0,0.0,80,0.00,,,0.00,WUHU216HW,2013-08-18 14:41:00,
2013-08-18 07:46:00,64.3,58.7,29.76,North,0,0.0,0.0,82,0.00,,,0.00,WUHU216HW,2013-08-18 14:46:00,
2013-08-18 07:51:00,65.0,59.1,29.76,North,0,0.0,0.0,81,0.00,,,0.00,WUHU216HW,2013-08-18 14:51:00,
2013-08-18 07:56:00,65.5,59.2,29.76,North,0,0.0,0.0,80,0.00,,,0.00,WUHU216HW,2013-08-18 14:56:00,
2013-08-18 08:01:00,65.9,59.6,29.76,North,0,0.0,0.0,80,0.00,,,0.00,WUHU216HW,2013-08-18 15:01:00,
2013-08-18 08:06:00,66.4,59.4,29.76,North,0,0.0,0.0,78,0.00,,,0.00,WUHU216HW,2013-08-18 15:06:00,
2013-08-18 08:11:00,66.6,59.1,29.77,North,0,0.0,0.0,77,0.00,,,0.00,WUHU216HW,2013-08-18 15:11:00,
2013-08-18 08:16:00,66.8,59.3,29.77,North,0,0.0,0.0,77,0.00,,,0.00,WUHU216HW,2013-08-18 15:16:00,
2013-08-18 08:21:00,67.3,59.5,29.77,North,0,0.0,0.0,76,0.00,,,0.00,WUHU216HW,2013-08-18 15:21:00,
2013-08-18 08:26:00,67.7,59.9,29.77,North,0,0.0,0.0,76,0.00,,,0.00,WUHU216HW,2013-08-18 15:26:00,
2013-08-18 08:31:00,68.0,59.9,29.77,North,0,0.0,0.0,75,0.00,,,0.00,WUHU216HW,2013-08-18 15:31:00,
2013-08-18 08:36:00,68.4,59.8,29.77,North,0,0.0,0.0,74,0.00,,,0.00,WUHU216HW,2013-08-18 15:36:00,
2013-08-18 08:41:00,68.8,60.1,29.77,North,0,0.0,0.0,74,0.00,,,0.00,WUHU216HW,2013-08-18 15:41:00,
2013-08-18 08:46:00,68.9,60.3,29.77,North,0,0.0,0.0,74,0.00,,,0.00,WUHU216HW,2013-08-18 15:46:00,
2013-08-18 08:51:00,69.3,60.6,29.77,North,0,0.0,0.0,74,0.00,,,0.00,WUHU216HW,2013-08-18 15:51:00,
2013-08-18 08:56:00,69.5,60.4,29.77,North,0,0.0,0.0,73,0.00,,,0.00,WUHU216HW,2013-08-18 15:56:00,
2013-08-18 09:01:00,69.7,60.6,29.76,North,0,0.0,0.0,73,0.00,,,0.00,WUHU216HW,2013-08-18 16:01:00,
2013-08-18 09:06:00,70.0,60.9,29.76,North,0,0.0,0.0,73,0.00,,,0.00,WUHU216HW,2013-08-18 16:06:00,
2013-08-18 09:11:00,70.2,60.7,29.77,North,0,0.0,0.0,72,0.00,,,0.00,WUHU216HW,2013-08-18 16:11:00,
2013-08-18 09:16:00,70.6,60.7,29.77,North,0,0.0,0.0,71,0.00,,,0.00,WUHU216HW,2013-08-18 16:16:00,
2013-08-18 09:21:00,70.9,61.0,29.77,North,0,0.0,0.0,71,0.00,,,0.00,WUHU216HW,2013-08-18 16:21:00,
2013-08-18 09:26:00,71.3,61.0,29.77,North,0,0.0,0.0,70,0.00,,,0.00,WUHU216HW,2013-08-18 16:26:00,
2013-08-18 09:31:00,71.6,61.4,29.77,North,0,0.0,0.0,70,0.00,,,0.00,WUHU216HW,2013-08-18 16:31:00,
2013-08-18 09:36:00,72.0,61.7,29.77,North,0,0.0,0.0,70,0.00,,,0.00,WUHU216HW,2013-08-18 16:36:00,
2013-08-18 09:41:00,72.4,62.1,29.77,North,0,0.0,0.0,70,0.00,,,0.00,WUHU216HW,2013-08-18 16:41:00,
2013-08-18 09:46:00,72.5,61.8,29.76,North,0,0.0,0.0,69,0.00,,,0.00,WUHU216HW,2013-08-18 16:46:00,
2013-08-18 09:51:00,72.5,61.8,29.76,North,0,0.0,0.0,69,0.00,,,0.00,WUHU216HW,2013-08-18 16:51:00,
2013-08-18 09:56:00,72.7,62.0,29.76,North,0,0.0,0.0,69,0.00,,,0.00,WUHU216HW,2013-08-18 16:56:00,
2013-08-18 10:01:00,72.7,61.6,29.76,North,0,0.0,0.0,68,0.00,,,0.00,WUHU216HW,2013-08-18 17:01:00,
2013-08-18 10:06:00,72.7,61.6,29.76,North,0,0.0,0.0,68,0.00,,,0.00,WUHU216HW,2013-08-18 17:06:00,
2013-08-18 10:11:00,72.9,61.3,29.76,North,0,0.0,0.0,67,0.00,,,0.00,WUHU216HW,2013-08-18 17:11:00,
2013-08-18 10:16:00,73.3,61.7,29.77,North,0,0.0,0.0,67,0.00,,,0.00,WUHU216HW,2013-08-18 17:16:00,
2013-08-18 10:21:00,73.4,61.4,29.77,North,0,0.0,0.0,66,0.00,,,0.00,WUHU216HW,2013-08-18 17:21:00,
2013-08-18 10:26:00,73.6,61.1,29.77,North,0,0.0,0.0,65,0.00,,,0.00,WUHU216HW,2013-08-18 17:26:00,
2013-08-18 10:31:00,73.4,61.4,29.78,North,0,0.0,0.0,66,0.00,,,0.00,WUHU216HW,2013-08-18 17:31:00,
2013-08-18 10:36:00,73.6,61.1,29.77,North,0,0.0,0.0,65,0.00,,,0.00,WUHU216HW,2013-08-18 17:36:00,
2013-08-18 10:41:00,73.6,61.1,29.77,North,0,0.0,0.0,65,0.00,,,0.00,WUHU216HW,2013-08-18 17:41:00,
2013-08-18 10:46:00,73.4,60.9,29.78,North,0,0.0,0.0,65,0.00,,,0.00,WUHU216HW,2013-08-18 17:46:00,
2013-08-18 10:51:00,73.1,61.0,29.78,North,0,0.0,0.0,66,0.00,,,0.00,WUHU216HW,2013-08-18 17:51:00,
2013-08-18 10:56:00,73.3,61.2,29.78,North,0,0.0,0.0,66,0.00,,,0.00,WUHU216HW,2013-08-18 17:56:00,
2013-08-18 11:01:00,73.1,61.0,29.78,North,0,0.0,0.0,66,0.00,,,0.00,WUHU216HW,2013-08-18 18:01:00,
2013-08-18 11:06:00,73.4,61.4,29.77,North,0,0.0,0.0,66,0.00,,,0.00,WUHU216HW,2013-08-18 18:06:00,
2013-08-18 11:11:00,74.0,61.5,29.77,North,0,0.0,0.0,65,0.00,,,0.00,WUHU216HW,2013-08-18 18:11:00,
2013-08-18 11:16:00,74.3,62.2,29.77,North,0,0.0,0.0,66,0.00,,,0.00,WUHU216HW,2013-08-18 18:16:00,
2013-08-18 11:21:00,74.7,61.3,29.77,North,0,0.0,0.0,63,0.00,,,0.00,WUHU216HW,2013-08-18 18:21:00,
2013-08-18 11:26:00,74.5,61.1,29.78,North,0,0.0,0.0,63,0.00,,,0.00,WUHU216HW,2013-08-18 18:26:00,
2013-08-18 11:31:00,73.8,60.4,29.77,North,0,0.0,0.0,63,0.00,,,0.00,WUHU216HW,2013-08-18 18:31:00,
2013-08-18 11:36:00,73.3,60.8,29.78,North,0,0.0,0.0,65,0.00,,,0.00,WUHU216HW,2013-08-18 18:36:00,
2013-08-18 11:41:00,72.9,59.9,29.77,North,0,0.0,0.0,64,0.00,,,0.00,WUHU216HW,2013-08-18 18:41:00,
2013-08-18 11:46:00,72.9,60.8,29.78,North,0,0.0,0.0,66,0.00,,,0.00,WUHU216HW,2013-08-18 18:46:00,
2013-08-18 11:51:00,73.4,60.5,29.77,North,0,0.0,0.0,64,0.00,,,0.00,WUHU216HW,2013-08-18 18:51:00,
2013-08-18 11:56:00,74.0,60.6,29.77,North,0,0.0,0.0,63,0.00,,,0.00,WUHU216HW,2013-08-18 18:56:00,
2013-08-18 12:01:00,74.2,60.8,29.77,North,0,0.0,0.0,63,0.00,,,0.00,WUHU216HW,2013-08-18 19:01:00,
2013-08-18 12:06:00,74.5,61.1,29.78,North,0,0.0,0.0,63,0.00,,,0.00,WUHU216HW,2013-08-18 19:06:00,
2013-08-18 12:11:00,75.1,61.6,29.77,North,0,0.0,0.0,63,0.00,,,0.00,WUHU216HW,2013-08-18 19:11:00,
2013-08-18 12:16:00,75.2,60.9,29.78,North,0,0.0,0.0,61,0.00,,,0.00,WUHU216HW,2013-08-18 19:16:00,
2013-08-18 12:21:00,75.2,61.4,29.77,North,0,0.0,0.0,62,0.00,,,0.00,WUHU216HW,2013-08-18 19:21:00,
2013-08-18 12:26:00,75.8,61.4,29.78,North,0,0.0,0.0,61,0.00,,,0.00,WUHU216HW,2013-08-18 19:26:00,
2013-08-18 12:31:00,75.4,60.7,29.78,North,0,0.0,0.0,60,0.00,,,0.00,WUHU216HW,2013-08-18 19:31:00,
2013-08-18 12:36:00,75.4,60.7,29.78,North,0,0.0,0.0,60,0.00,,,0.00,WUHU216HW,2013-08-18 19:36:00,
2013-08-18 12:41:00,75.8,60.9,29.78,North,0,0.0,0.0,60,0.00,,,0.00,WUHU216HW,2013-08-18 19:41:00,
2013-08-18 12:46:00,76.0,60.7,29.78,North,0,0.0,0.0,59,0.00,,,0.00,WUHU216HW,2013-08-18 19:46:00,
2013-08-18 12:51:00,76.0,60.7,29.78,North,0,0.0,0.0,59,0.00,,,0.00,WUHU216HW,2013-08-18 19:51:00,
2013-08-18 12:56:00,75.2,60.5,29.78,North,0,0.0,0.0,60,0.00,,,0.00,WUHU216HW,2013-08-18 19:56:00,
2013-08-18 13:01:00,75.1,59.8,29.77,North,0,0.0,0.0,59,0.00,,,0.00,WUHU216HW,2013-08-18 20:01:00,
2013-08-18 13:06:00,74.9,60.1,29.77,North,0,0.0,0.0,60,0.00,,,0.00,WUHU216HW,2013-08-18 20:06:00,
2013-08-18 13:11:00,74.9,59.6,29.77,North,0,0.0,0.0,59,0.00,,,0.00,WUHU216HW,2013-08-18 20:11:00,
2013-08-18 13:16:00,74.5,59.8,29.77,North,0,0.0,0.0,60,0.00,,,0.00,WUHU216HW,2013-08-18 20:16:00,
2013-08-18 13:21:00,74.2,59.9,29.77,North,0,0.0,0.0,61,0.00,,,0.00,WUHU216HW,2013-08-18 20:21:00,
2013-08-18 13:26:00,74.7,59.4,29.78,North,0,0.0,0.0,59,0.00,,,0.00,WUHU216HW,2013-08-18 20:26:00,
2013-08-18 13:31:00,74.0,59.7,29.77,North,0,0.0,0.0,61,0.00,,,0.00,WUHU216HW,2013-08-18 20:31:00,
2013-08-18 13:36:00,73.6,58.9,29.78,North,0,0.0,0.0,60,0.00,,,0.00,WUHU216HW,2013-08-18 20:36:00,
2013-08-18 13:41:00,73.8,59.0,29.78,North,0,0.0,0.0,60,0.00,,,0.00,WUHU216HW,2013-08-18 20:41:00,
2013-08-18 13:46:00,74.2,59.4,29.78,North,0,0.0,0.0,60,0.00,,,0.00,WUHU216HW,2013-08-18 20:46:00,
2013-08-18 13:51:00,74.2,59.4,29.78,North,0,0.0,0.0,60,0.00,,,0.00,WUHU216HW,2013-08-18 20:51:00,
2013-08-18 13:56:00,74.2,59.9,29.78,North,0,0.0,0.0,61,0.00,,,0.00,WUHU216HW,2013-08-18 20:56:00,
2013-08-18 14:01:00,74.7,59.9,29.78,North,0,0.0,0.0,60,0.00,,,0.00,WUHU216HW,2013-08-18 21:01:00,
2013-08-18 14:06:00,74.5,59.8,29.78,North,0,0.0,0.0,60,0.00,,,0.00,WUHU216HW,2013-08-18 21:06:00,
2013-08-18 14:11:00,74.5,59.8,29.78,North,0,0.0,0.0,60,0.00,,,0.00,WUHU216HW,2013-08-18 21:11:00,
2013-08-18 14:16:00,74.3,59.6,29.78,North,0,0.0,0.0,60,0.00,,,0.00,WUHU216HW,2013-08-18 21:16:00,
2013-08-18 14:21:00,74.5,59.8,29.78,North,0,0.0,0.0,60,0.00,,,0.00,WUHU216HW,2013-08-18 21:21:00,
2013-08-18 14:26:00,74.5,59.8,29.78,North,0,0.0,0.0,60,0.00,,,0.00,WUHU216HW,2013-08-18 21:26:00,
2013-08-18 14:31:00,75.1,60.8,29.78,North,0,0.0,0.0,61,0.00,,,0.00,WUHU216HW,2013-08-18 21:31:00,
2013-08-18 14:36:00,75.4,60.1,29.78,North,0,0.0,0.0,59,0.00,,,0.00,WUHU216HW,2013-08-18 21:36:00,
2013-08-18 14:41:00,75.2,59.5,29.78,North,0,0.0,0.0,58,0.00,,,0.00,WUHU216HW,2013-08-18 21:41:00,
2013-08-18 14:46:00,75.2,59.9,29.77,North,0,0.0,0.0,59,0.00,,,0.00,WUHU216HW,2013-08-18 21:46:00,
2013-08-18 14:51:00,75.6,60.3,29.78,North,0,0.0,0.0,59,0.00,,,0.00,WUHU216HW,2013-08-18 21:51:00,
2013-08-18 14:56:00,75.6,59.8,29.78,North,0,0.0,0.0,58,0.00,,,0.00,WUHU216HW,2013-08-18 21:56:00,
2013-08-18 15:01:00,75.6,60.3,29.78,North,0,0.0,0.0,59,0.00,,,0.00,WUHU216HW,2013-08-18 22:01:00,
2013-08-18 15:06:00,75.6,59.8,29.77,North,0,0.0,0.0,58,0.00,,,0.00,WUHU216HW,2013-08-18 22:06:00,
2013-08-18 15:11:00,75.2,59.5,29.77,North,0,0.0,0.0,58,0.00,,,0.00,WUHU216HW,2013-08-18 22:11:00,
2013-08-18 15:16:00,75.2,59.9,29.77,North,0,0.0,0.0,59,0.00,,,0.00,WUHU216HW,2013-08-18 22:16:00,
2013-08-18 15:21:00,75.4,59.7,29.77,North,0,0.0,0.0,58,0.00,,,0.00,WUHU216HW,2013-08-18 22:21:00,
2013-08-18 15:26:00,75.6,60.3,29.77,North,0,0.0,0.0,59,0.00,,,0.00,WUHU216HW,2013-08-18 22:26:00,
2013-08-18 15:31:00,75.6,59.8,29.77,North,0,0.0,0.0,58,0.00,,,0.00,WUHU216HW,2013-08-18 22:31:00,
2013-08-18 15:36:00,75.2,59.9,29.77,North,0,0.0,0.0,59,0.00,,,0.00,WUHU216HW,2013-08-18 22:36:00,
2013-08-18 15:41:00,75.1,59.3,29.78,North,0,0.0,0.0,58,0.00,,,0.00,WUHU216HW,2013-08-18 22:41:00,
2013-08-18 15:46:00,75.1,59.8,29.78,North,0,0.0,0.0,59,0.00,,,0.00,WUHU216HW,2013-08-18 22:46:00,
2013-08-18 15:51:00,74.9,60.1,29.78,North,0,0.0,0.0,60,0.00,,,0.00,WUHU216HW,2013-08-18 22:51:00,
2013-08-18 15:56:00,74.9,60.1,29.78,North,0,0.0,0.0,60,0.00,,,0.00,WUHU216HW,2013-08-18 22:56:00,
2013-08-18 16:01:00,75.1,59.8,29.78,North,0,0.0,0.0,59,0.00,,,0.00,WUHU216HW,2013-08-18 23:01:00,
2013-08-18 16:06:00,74.9,59.6,29.78,North,0,0.0,0.0,59,0.00,,,0.00,WUHU216HW,2013-08-18 23:06:00,
2013-08-18 16:11:00,74.7,59.0,29.78,North,0,0.0,0.0,58,0.00,,,0.00,WUHU216HW,2013-08-18 23:11:00,
2013-08-18 16:16:00,74.5,58.8,29.78,North,0,0.0,0.0,58,0.00,,,0.00,WUHU216HW,2013-08-18 23:16:00,
2013-08-18 16:21:00,74.5,58.8,29.78,North,0,0.0,0.0,58,0.00,,,0.00,WUHU216HW,2013-08-18 23:21:00,
2013-08-18 16:26:00,74.5,58.8,29.77,North,0,0.0,0.0,58,0.00,,,0.00,WUHU216HW,2013-08-18 23:26:00,
2013-08-18 16:31:00,74.5,59.2,29.77,North,0,0.0,0.0,59,0.00,,,0.00,WUHU216HW,2013-08-18 23:31:00,
2013-08-18 16:36:00,74.7,59.4,29.77,North,0,0.0,0.0,59,0.00,,,0.00,WUHU216HW,2013-08-18 23:36:00,
2013-08-18 16:41:00,74.2,58.4,29.77,North,0,0.0,0.0,58,0.00,,,0.00,WUHU216HW,2013-08-18 23:41:00,
2013-08-18 16:46:00,73.6,57.9,29.77,North,0,0.0,0.0,58,0.00,,,0.00,WUHU216HW,2013-08-18 23:46:00,
2013-08-18 16:51:00,73.1,57.9,29.77,North,0,0.0,0.0,59,0.00,,,0.00,WUHU216HW,2013-08-18 23:51:00,
2013-08-18 16:56:00,72.9,58.2,29.77,North,0,0.0,0.0,60,0.00,,,0.00,WUHU216HW,2013-08-18 23:56:00,
2013-08-18 17:01:00,72.7,58.1,29.77,North,0,0.0,0.0,60,0.00,,,0.00,WUHU216HW,2013-08-19 00:01:00,
2013-08-18 17:06:00,72.5,57.9,29.77,North,0,0.0,0.0,60,0.00,,,0.00,WUHU216HW,2013-08-19 00:06:00,
2013-08-18 17:11:00,72.4,58.1,29.77,North,0,0.0,0.0,61,0.00,,,0.00,WUHU216HW,2013-08-19 00:11:00,
2013-08-18 17:16:00,72.2,58.0,29.77,North,0,0.0,0.0,61,0.00,,,0.00,WUHU216HW,2013-08-19 00:16:00,
2013-08-18 17:21:00,72.2,58.0,29.77,North,0,0.0,0.0,61,0.00,,,0.00,WUHU216HW,2013-08-19 00:21:00,
2013-08-18 17:26:00,72.2,58.0,29.77,North,0,0.0,0.0,61,0.00,,,0.00,WUHU216HW,2013-08-19 00:26:00,
2013-08-18 17:31:00,72.0,57.8,29.77,North,0,0.0,0.0,61,0.00,,,0.00,WUHU216HW,2013-08-19 00:31:00,
2013-08-18 17:36:00,71.6,57.5,29.77,North,0,0.0,0.0,61,0.00,,,0.00,WUHU216HW,2013-08-19 00:36:00,
2013-08-18 17:41:00,71.6,57.5,29.77,North,0,0.0,0.0,61,0.00,,,0.00,WUHU216HW,2013-08-19 00:41:00,
2013-08-18 17:46:00,71.6,57.5,29.77,North,0,0.0,0.0,61,0.00,,,0.00,WUHU216HW,2013-08-19 00:46:00,
2013-08-18 17:51:00,71.5,57.3,29.76,North,0,0.0,0.0,61,0.00,,,0.00,WUHU216HW,2013-08-19 00:51:00,
2013-08-18 17:56:00,71.3,57.2,29.76,North,0,0.0,0.0,61,0.00,,,0.00,WUHU216HW,2013-08-19 00:56:00,
2013-08-18 18:01:00,71.5,57.3,29.76,North,0,0.0,0.0,61,0.00,,,0.00,WUHU216HW,2013-08-19 01:01:00,
2013-08-18 18:06:00,71.3,57.2,29.76,North,0,0.0,0.0,61,0.00,,,0.00,WUHU216HW,2013-08-19 01:06:00,
2013-08-18 18:11:00,71.3,57.2,29.76,North,0,0.0,0.0,61,0.00,,,0.00,WUHU216HW,2013-08-19 01:11:00,
2013-08-18 18:16:00,71.3,56.7,29.76,North,0,0.0,0.0,60,0.00,,,0.00,WUHU216HW,2013-08-19 01:16:00,
2013-08-18 18:21:00,71.3,56.7,29.76,North,0,0.0,0.0,60,0.00,,,0.00,WUHU216HW,2013-08-19 01:21:00,
2013-08-18 18:26:00,71.5,56.9,29.76,North,0,0.0,0.0,60,0.00,,,0.00,WUHU216HW,2013-08-19 01:26:00,
2013-08-18 18:31:00,71.5,56.4,29.76,North,0,0.0,0.0,59,0.00,,,0.00,WUHU216HW,2013-08-19 01:31:00,
2013-08-18 18:36:00,71.1,55.5,29.76,North,0,0.0,0.0,58,0.00,,,0.00,WUHU216HW,2013-08-19 01:36:00,
2013-08-18 18:41:00,70.9,55.9,29.76,North,0,0.0,0.0,59,0.00,,,0.00,WUHU216HW,2013-08-19 01:41:00,
2013-08-18 18:46:00,70.7,55.7,29.76,North,0,0.0,0.0,59,0.00,,,0.00,WUHU216HW,2013-08-19 01:46:00,
2013-08-18 18:51:00,70.6,55.6,29.76,North,0,0.0,0.0,59,0.00,,,0.00,WUHU216HW,2013-08-19 01:51:00,
2013-08-18 18:56:00,70.6,55.6,29.75,North,0,0.0,0.0,59,0.00,,,0.00,WUHU216HW,2013-08-19 01:56:00,
2013-08-18 19:01:00,70.6,56.1,29.76,North,0,0.0,0.0,60,0.00,,,0.00,WUHU216HW,2013-08-19 02:01:00,
2013-08-18 19:06:00,70.4,55.5,29.76,North,0,0.0,0.0,59,0.00,,,0.00,WUHU216HW,2013-08-19 02:06:00,
2013-08-18 19:11:00,70.2,54.7,29.76,North,0,0.0,0.0,58,0.00,,,0.00,WUHU216HW,2013-08-19 02:11:00,
2013-08-18 19:16:00,69.8,54.5,29.75,North,0,0.0,0.0,58,0.00,,,0.00,WUHU216HW,2013-08-19 02:16:00,
2013-08-18 19:21:00,69.5,54.5,29.76,North,0,0.0,0.0,59,0.00,,,0.00,WUHU216HW,2013-08-19 02:21:00,
2013-08-18 19:26:00,69.3,54.4,29.75,North,0,0.0,0.0,59,0.00,,,0.00,WUHU216HW,2013-08-19 02:26:00,
2013-08-18 19:31:00,68.9,54.5,29.75,North,0,0.0,0.0,60,0.00,,,0.00,WUHU216HW,2013-08-19 02:31:00,
2013-08-18 19:36:00,68.8,54.4,29.76,North,0,0.0,0.0,60,0.00,,,0.00,WUHU216HW,2013-08-19 02:36:00,
2013-08-18 19:41:00,68.8,54.4,29.76,North,0,0.0,0.0,60,0.00,,,0.00,WUHU216HW,2013-08-19 02:41:00,
2013-08-18 19:46:00,68.6,54.2,29.76,North,0,0.0,0.0,60,0.00,,,0.00,WUHU216HW,2013-08-19 02:46:00,
2013-08-18 19:51:00,68.4,54.5,29.75,North,0,0.0,0.0,61,0.00,,,0.00,WUHU216HW,2013-08-19 02:51:00,
2013-08-18 19:56:00,68.2,54.3,29.75,North,0,0.0,0.0,61,0.00,,,0.00,WUHU216HW,2013-08-19 02:56:00,
2013-08-18 20:01:00,68.0,54.1,29.75,North,0,0.0,0.0,61,0.00,,,0.00,WUHU216HW,2013-08-19 03:01:00,
2013-08-18 20:06:00,68.0,54.1,29.76,North,0,0.0,0.0,61,0.00,,,0.00,WUHU216HW,2013-08-19 03:06:00,
2013-08-18 20:11:00,67.9,53.9,29.75,North,0,0.0,0.0,61,0.00,,,0.00,WUHU216HW,2013-08-19 03:11:00,
2013-08-18 20:16:00,67.9,53.9,29.75,North,0,0.0,0.0,61,0.00,,,0.00,WUHU216HW,2013-08-19 03:16:00,
2013-08-18 20:21:00,67.7,53.7,29.75,North,0,0.0,0.0,61,0.00,,,0.00,WUHU216HW,2013-08-19 03:21:00,
2013-08-18 20:26:00,67.7,53.7,29.75,North,0,0.0,0.0,61,0.00,,,0.00,WUHU216HW,2013-08-19 03:26:00,
2013-08-18 20:31:00,67.5,54.0,29.75,North,0,0.0,0.0,62,0.00,,,0.00,WUHU216HW,2013-08-19 03:31:00,
2013-08-18 20:36:00,67.5,54.5,29.75,North,0,0.0,0.0,63,0.00,,,0.00,WUHU216HW,2013-08-19 03:36:00,
2013-08-18 20:41:00,67.1,54.6,29.76,North,0,0.0,0.0,64,0.00,,,0.00,WUHU216HW,2013-08-19 03:41:00,
2013-08-18 20:46:00,66.8,54.2,29.76,North,0,0.0,0.0,64,0.00,,,0.00,WUHU216HW,2013-08-19 03:46:00,
2013-08-18 20:51:00,66.6,54.5,29.76,North,0,0.0,0.0,65,0.00,,,0.00,WUHU216HW,2013-08-19 03:51:00,
2013-08-18 20:56:00,66.4,53.8,29.76,North,0,0.0,0.0,64,0.00,,,0.00,WUHU216HW,2013-08-19 03:56:00,
2013-08-18 21:01:00,66.2,53.3,29.76,North,0,0.0,0.0,63,0.00,,,0.00,WUHU216HW,2013-08-19 04:01:00,
2013-08-18 21:06:00,66.1,53.1,29.76,North,0,0.0,0.0,63,0.00,,,0.00,WUHU216HW,2013-08-19 04:06:00,
2013-08-18 21:11:00,66.1,53.1,29.76,North,0,0.0,0.0,63,0.00,,,0.00,WUHU216HW,2013-08-19 04:11:00,
2013-08-18 21:16:00,65.9,52.9,29.76,North,0,0.0,0.0,63,0.00,,,0.00,WUHU216HW,2013-08-19 04:16:00,
2013-08-18 21:21:00,65.5,53.0,29.76,North,0,0.0,0.0,64,0.00,,,0.00,WUHU216HW,2013-08-19 04:21:00,
2013-08-18 21:26:00,65.3,52.8,29.76,North,0,0.0,0.0,64,0.00,,,0.00,WUHU216HW,2013-08-19 04:26:00,
2013-08-18 21:31:00,65.2,52.7,29.76,North,0,0.0,0.0,64,0.00,,,0.00,WUHU216HW,2013-08-19 04:31:00,
2013-08-18 21:36:00,65.0,52.5,29.76,North,0,0.0,0.0,64,0.00,,,0.00,WUHU216HW,2013-08-19 04:36:00,
2013-08-18 21:41:00,64.8,52.8,29.76,North,0,0.0,0.0,65,0.00,,,0.00,WUHU216HW,2013-08-19 04:41:00,
2013-08-18 21:46:00,64.8,52.8,29.76,North,0,0.0,0.0,65,0.00,,,0.00,WUHU216HW,2013-08-19 04:46:00,
2013-08-18 21:51:00,64.4,52.4,29.76,North,0,0.0,0.0,65,0.00,,,0.00,WUHU216HW,2013-08-19 04:51:00,
2013-08-18 21:56:00,64.4,52.8,29.76,North,0,0.0,0.0,66,0.00,,,0.00,WUHU216HW,2013-08-19 04:56:00,
2013-08-18 22:01:00,64.3,52.7,29.76,North,0,0.0,0.0,66,0.00,,,0.00,WUHU216HW,2013-08-19 05:01:00,
2013-08-18 22:06:00,64.3,52.7,29.76,North,0,0.0,0.0,66,0.00,,,0.00,WUHU216HW,2013-08-19 05:06:00,
2013-08-18 22:11:00,64.1,52.5,29.76,North,0,0.0,0.0,66,0.00,,,0.00,WUHU216HW,2013-08-19 05:11:00,
2013-08-18 22:16:00,64.1,52.5,29.76,North,0,0.0,0.0,66,0.00,,,0.00,WUHU216HW,2013-08-19 05:16:00,
2013-08-18 22:21:00,64.1,52.5,29.76,North,0,0.0,0.0,66,0.00,,,0.00,WUHU216HW,2013-08-19 05:21:00,
2013-08-18 22:26:00,63.9,52.3,29.76,North,0,0.0,0.0,66,0.00,,,0.00,WUHU216HW,2013-08-19 05:26:00,
2013-08-18 22:31:00,63.9,52.8,29.76,North,0,0.0,0.0,67,0.00,,,0.00,WUHU216HW,2013-08-19 05:31:00,
2013-08-18 22:36:00,63.9,52.8,29.76,North,0,0.0,0.0,67,0.00,,,0.00,WUHU216HW,2013-08-19 05:36:00,
2013-08-18 22:41:00,63.7,52.6,29.76,North,0,0.0,0.0,67,0.00,,,0.00,WUHU216HW,2013-08-19 05:41:00,
2013-08-18 22:46:00,63.7,52.6,29.76,North,0,0.0,0.0,67,0.00,,,0.00,WUHU216HW,2013-08-19 05:46:00,
2013-08-18 22:51:00,63.5,52.4,29.76,North,0,0.0,0.0,67,0.00,,,0.00,WUHU216HW,2013-08-19 05:51:00,
2013-08-18 22:56:00,63.5,52.4,29.76,North,0,0.0,0.0,67,0.00,,,0.00,WUHU216HW,2013-08-19 05:56:00,
2013-08-18 23:01:00,63.5,52.4,29.76,North,0,0.0,0.0,67,0.00,,,0.00,WUHU216HW,2013-08-19 06:01:00,
2013-08-18 23:06:00,63.5,52.8,29.76,North,0,0.0,0.0,68,0.00,,,0.00,WUHU216HW,2013-08-19 06:06:00,
2013-08-18 23:11:00,63.4,52.7,29.75,North,0,0.0,0.0,68,0.00,,,0.00,WUHU216HW,2013-08-19 06:11:00,
2013-08-18 23:16:00,63.4,52.7,29.75,North,0,0.0,0.0,68,0.00,,,0.00,WUHU216HW,2013-08-19 06:16:00,
2013-08-18 23:21:00,63.4,52.7,29.75,North,0,0.0,0.0,68,0.00,,,0.00,WUHU216HW,2013-08-19 06:21:00,
2013-08-18 23:26:00,63.4,52.7,29.75,North,0,0.0,0.0,68,0.00,,,0.00,WUHU216HW,2013-08-19 06:26:00,
2013-08-18 23:31:00,63.4,52.7,29.75,North,0,0.0,0.0,68,0.00,,,0.00,WUHU216HW,2013-08-19 06:31:00,
2013-08-18 23:36:00,63.4,52.7,29.75,North,0,0.0,0.0,68,0.00,,,0.00,WUHU216HW,2013-08-19 06:36:00,
2013-08-18 23:41:00,63.5,52.8,29.76,North,0,0.0,0.0,68,0.00,,,0.00,WUHU216HW,2013-08-19 06:41:00,
2013-08-18 23:46:00,63.5,53.2,29.75,North,0,0.0,0.0,69,0.00,,,0.00,WUHU216HW,2013-08-19 06:46:00,
2013-08-18 23:51:00,63.5,53.2,29.76,North,0,0.0,0.0,69,0.00,,,0.00,WUHU216HW,2013-08-19 06:51:00,
2013-08-18 23:56:00,63.4,53.0,29.76,North,0,0.0,0.0,69,0.00,,,0.00,WUHU216HW,2013-08-19 06:56:00,